Regional Weather Roundup
Issued by NWS

Home | Current Version | Previous Version | Graphics & Text | Print | Product List | Glossary On
Versions: 1 2 3 4 5 6 7 8 9 10 11 12 13 14 15 16 17 18 19 20 21 22 23 24 25 26 27 28 29 30 31 32 33 34 35 36 37 38 39 40 41 42 43 44 45 46 47 48 49 50
000
ASUS45 KTFX 270704
RWRMT
MONTANA HOURLY WEATHER ROUNDUP
NATIONAL WEATHER SERVICE GREAT FALLS MT
1204 AM MST TUE JAN 27 2015

NOTE: "FAIR" INDICATES FEW OR NO CLOUDS BELOW 12000 FEET WITH NO
SIGNIFICANT WEATHER AND/OR OBSTRUCTIONS TO VISIBILITY.

* THESE STATIONS ARE NOT UNDER NWS QUALITY CONTROL. THEY DO NOT
   REPORT WEATHER SUCH AS PRECIPITATION OR FOG.

MTZ001>007-043-270800-
WEST OF THE DIVIDE
CITY           SKY/WX    TMP DP  RH WIND       PRES   REMARKS
KALISPELL      FOG       19  18  96 CALM      30.02R VSB 1
MISSOULA       CLEAR     28  25  89 CALM      30.08R
BUTTE          PTCLDY    30  25  82 SE3       30.11S
MULLAN PASS    CLEAR     43  27  53 SW9G18    30.06S
* ANACONDA     PTCLDY    46  25  44 S9         N/A
* ESSEX        N/A       28  26  92 S2         N/A
* LINCOLN      N/A       42  26  53 W4G10      N/A
* LOOKOUT PASS N/A       37  30  76 SW1        N/A
* POLSON       N/A       43  29  58 S1         N/A
* RONAN APT    CLEAR     30  30 100 N/A        N/A
* SEELEY LAKE  N/A       26  23  88 E3         N/A
* THOMP F APT  CLEAR     40  22  49 NE4        N/A
$$

MTZ008-052>055-270800-
SOUTHWEST MONTANA
CITY           SKY/WX    TMP DP  RH WIND       PRES   REMARKS
BOZEMAN        PTCLDY    28  25  89 S3        30.08F
DILLON         PTCLDY    37  27  67 S9        30.11F WCI  30
* W YELLOWSTON CLEAR     18  17  96 N/A        N/A
* THREE FORKS  PTCLDY    28  28 100 N/A        N/A
* BOULDER HILL N/A       41  23  49 S9         N/A
* MONIDA PASS  N/A       29  24  82 SE10       N/A   WCI  20
* RAYNOLDS PAS N/A       26  13  58 S10        N/A   WCI  16
* WHITEHALL    N/A       37  26  64 N8G13      N/A   WCI  31
* WISE RIVER   N/A       29  26  89 N/A        N/A
$$

MTZ009>010-012-014-046-048-049-054-270800-
EAST SLOPES AND CENTRAL MONTANA
CITY           SKY/WX    TMP DP  RH WIND       PRES   REMARKS
CUT BANK       MOCLDY    48  25  41 SW13      29.88R
GREAT FALLS    PTCLDY    52  28  40 SW18      29.93S
HELENA         CLEAR     34  28  79 CALM      30.05S
MALMSTROM AFB  PTCLDY    52  28  40 SW28      29.90F
* DEARBORN     N/A       49  30  48 S9G14      N/A
* EAST GLACIER N/A       51  22  32 W12G17     N/A
* MONARCH      N/A       50  19  29 SW10       N/A
* PENDROY      N/A       44  22  42 N/A        N/A
* ROGERS PASS  N/A       49  22  35 SE12G20    N/A
* SWEET GRASS  N/A       51  24  35 W13        N/A
$$

MTZ011-013-016-021-035-040-045-047-050-051-270800-
NORTH CENTRAL MONTANA
CITY           SKY/WX    TMP DP  RH WIND       PRES   REMARKS
HAVRE          MOCLDY    45  32  60 SW17      29.82S
LEWISTOWN      MOCLDY    48  28  46 W6        29.94S
* N BAR RANCH  CLEAR     46  23  40 W3        29.96S
* CHESTER      N/A       39  30  70 W3         N/A
* DENTON       N/A       47  26  44 E5         N/A
* GEYSER       N/A       56  23  28 W20G27     N/A
* JUDITH GAP   N/A       52  28  40 SW19       N/A
* LOMA         N/A       56  30  37 SW13       N/A
$$

MTZ017>020-022>027-061-062-270800-
NORTHEAST MONTANA
CITY           SKY/WX    TMP DP  RH WIND       PRES   REMARKS
GLASGOW        MOCLDY    34  30  85 E9        29.83F WCI  27
GLENDIVE       PTCLDY    34  28  79 S7        29.88F WCI  28
JORDAN         MOCLDY    30  27  89 CALM      29.86S
SIDNEY         CLEAR     30  27  89 CALM      29.89F
WOLF POINT     PTCLDY    28  27  96 CALM      29.86S
* BEAVER HILL  N/A       43  32  65 S12G18     N/A
* CIRCLE       N/A       40  33  76 N/A        N/A
* LINDSAY DVD  N/A       38  28  67 W3         N/A
* NAVAJO       N/A       33  30  89 S4         N/A
* SACO         N/A       33  31  92 E1G6       N/A
$$

MTZ028>042-056>058-270800-
SOUTHCENTRAL AND SOUTHEAST MONTANA
CITY           SKY/WX    TMP DP  RH WIND       PRES   REMARKS
BAKER          CLEAR     30  27  89 CALM      29.92F
BILLINGS       MOCLDY    52  27  38 SW20      29.99S
LIVINGSTON     CLEAR     54  25  33 W23       30.04F
MILES CITY     CLEAR     37  30  76 S9        29.90F WCI  30
* LAUREL APT   MOCLDY    45  27  49 S6         N/A
* ROUNDUP APT  MOCLDY    48  27  44 S7         N/A
* ALZADA       N/A       37  30  76 N2         N/A
* HYSHAM       N/A       49  24  38 W5G12      N/A
* LAME DEER    N/A       56  23  28 SW5        N/A
* REED POINT   N/A       31  30  96 E4         N/A
$$

REGIONAL REPORTS...DAKOTAS
CITY           SKY/WX    TMP DP  RH WIND       PRES   REMARKS
WILLISTON      CLEAR     28  27  96 CALM      29.86F
DICKINSON      CLEAR     32  28  85 S7        29.88S WCI  25
CROSBY         CLEAR     32  32 100 S9        29.86F WCI  24
WATFORD CITY   CLEAR     28  28 100 CALM      29.86F
BISMARCK       MOCLDY    30  28  92 CALM      29.96F
GRAND FORKS    FOG       25  25 100 S6        30.04R VSB 1    WCI  18
FARGO          CLOUDY    28  25  89 NE3       30.05R
BUFFALO SD     CLEAR     45  30  56 W8        29.87F
RAPID CITY     CLEAR     34  27  76 W5        29.97F WCI  29
$$

REGIONAL REPORTS...WYOMING/IDAHO/WASHINGTON
CITY           SKY/WX    TMP DP  RH WIND       PRES   REMARKS
GILLETTE       CLEAR     48  27  44 SW15      30.01S
SHERIDAN       PTCLDY    39  27  62 W3        29.99F
CODY           PTCLDY    43  28  56 SW7       30.11S
YELLOWSTONE LA PTCLDY    12   9  88 CALM      30.32S
SALMON         CLOUDY   N/A N/A N/A E3        30.21S VSB 1/2
MULLAN PASS    CLEAR     43  27  53 SW9G18    30.06S
SAND POINT     FOG      N/A N/A N/A CALM      30.04R VSB M1/4
SPOKANE        FOG       36  36 100 CALM      29.99R

$$



USA.gov is the U.S. government's official web portal to all federal, state and local government web resources and services.